This demonstration page uses our WeatherBlox Daily Observations layout. Learn more.

Left ArrowRight Arrow

39.92423, -83.80882

Hourly Observations for September 12, 2015

Temp ( °F °C ) Dew Point ( °F °C ) Humidity (%) Winds ( mph kmh ) Pressure ( in mb ) Visibility ( mi km ) Precip ( " mm )
12:06 am 00:06 Cloudy with Light Rain 59 15 59 15 100 100 N 10 17 29.91 1013 10 16 0.01 0.25
12:56 am 00:56 Cloudy 59 15 58 14.4 96 96 N 8 13 29.88 1012 10 16 0.01 0.25
1:41 am 01:41 Cloudy with Light Rain 59 15 57 14 94 94 NNW 8 13 29.91 1013 10 16 N/A
1:56 am 01:56 Cloudy 59 15 58 14.4 96 96 NNW 9 15 29.88 1012 10 16 N/A
2:37 am 02:37 Cloudy with Light Rain 57 14 57 14 100 100 N 10 17 29.88 1012 4 6 N/A
2:56 am 02:56 Cloudy 58 14.4 57 13.8 96 96 N 9 15 29.88 1012 10 16 N/A
3:05 am 03:05 Cloudy 57 14 57 14 100 100 N 9 15 29.88 1012 10 16 N/A
3:13 am 03:13 Cloudy 57 14 57 14 100 100 N 9 15 29.88 1012 10 16 N/A
3:56 am 03:56 Cloudy 57 13.8 57 13.8 100 100 N 10 17 29.87 1012 10 16 0.01 0.25
4:07 am 04:07 Mostly Cloudy 57 14 55 13 94 94 NNE 10 17 29.88 1012 10 16 N/A
4:32 am 04:32 Cloudy 57 14 55 13 94 94 N 12 19 29.88 1012 10 16 N/A
4:56 am 04:56 Cloudy 57 13.8 56 13.3 97 97 N 7 11 29.88 1012 10 16 N/A
5:15 am 05:15 Cloudy 57 14 55 13 94 94 NNW 7 11 29.91 1013 10 16 N/A
5:56 am 05:56 Cloudy 57 13.8 56 13.3 97 97 N 8 13 29.89 1012 10 16 N/A
6:34 am 06:34 Cloudy 57 14 55 13 94 94 N 10 17 29.91 1013 10 16 N/A
6:56 am 06:56 Cloudy 56 13.3 54 12.2 93 93 N 12 19 29.89 1012 10 16 N/A
7:23 am 07:23 Partly Cloudy 55 13 54 12 94 94 N 8 13 29.91 1013 10 16 N/A
7:36 am 07:36 Mostly Cloudy 55 13 54 12 94 94 NNW 6 9 29.91 1013 10 16 N/A
7:56 am 07:56 Cloudy 56 13.3 55 12.7 96 96 NNW 7 11 29.90 1013 10 16 N/A
8:56 am 08:56 Mostly Cloudy 57 13.8 55 12.7 93 93 NNW 6 9 29.91 1013 10 16 N/A
9:12 am 09:12 Cloudy 57 14 55 13 94 94 NW 6 9 29.91 1013 10 16 N/A
9:56 am 09:56 Cloudy 58 14.4 55 12.7 90 90 NNW 13 20 29.93 1013 10 16 N/A
10:24 am 10:24 Mostly Cloudy 61 16 55 13 83 83 NNW 12 19 29.94 1014 10 16 N/A
10:35 am 10:35 Mostly Cloudy 61 16 55 13 83 83 NNW 12 19 29.94 1014 10 16 N/A
10:49 am 10:49 Cloudy 61 16 55 13 83 83 NW 13 20 29.94 1014 10 16 N/A
10:56 am 10:56 Cloudy 59 15 54 12.2 83 83 NNW 14 22 29.94 1014 10 16 N/A
11:26 am 11:26 Cloudy 61 16 55 13 83 83 NNW 8 13 29.97 1015 10 16 N/A
11:56 am 11:56 Mostly Sunny 62 16.6 54 12.2 75 75 NNE 12 19 29.93 1014 10 16 N/A
12:56 pm 12:56 Partly Cloudy 64 17.7 52 11.1 65 65 N 8 13 29.93 1013 10 16 N/A
1:56 pm 13:56 Mostly Cloudy 63 17.2 51 10.5 65 65 NNW 10 17 29.92 1013 10 16 N/A
2:56 pm 14:56 Mostly Cloudy 63 17.2 50 10 63 63 N 9 15 29.91 1013 10 16 N/A
3:56 pm 15:56 Mostly Sunny 66 18.8 51 10.5 59 59 NW 13 20 29.89 1012 10 16 N/A
4:56 pm 16:56 Mostly Sunny 67 19.4 48 8.8 50 50 WNW 16 26 29.89 1012 10 16 N/A
5:56 pm 17:56 Partly Cloudy 63 17.2 48 8.8 58 58 NNW 13 20 29.89 1012 10 16 N/A
6:56 pm 18:56 Partly Cloudy 62 16.6 48 8.8 60 60 N 10 17 29.90 1012 10 16 N/A
7:56 pm 19:56 Clear 57 13.8 49 9.4 75 75 WNW 5 7 29.91 1013 10 16 N/A
8:56 pm 20:56 Mostly Cloudy 55 12.7 48 8.8 77 77 NW 6 9 29.92 1013 10 16 N/A
9:56 pm 21:56 Mostly Cloudy 55 12.7 50 10 84 84 N 7 11 29.95 1014 10 16 N/A
10:56 pm 22:56 Clear 53 11.6 50 10 90 90 NNW 8 13 29.95 1014 10 16 N/A
11:56 pm 23:56 Clear 50 10 49 9.4 96 96 NW 7 11 29.96 1015 10 16 N/A

Powered by AerisWeather